Location: Aragoneses
(41.0275°N, 4.3847°W)
Time: 06:53:19
(UTC+00:00)

Meteor 2-10 - Visible Passes

Search period start: 11 March 2026 00:00
Search period end: 21 March 2026 00:00
Orbit: 736 x 866 km, 81.2° (Epoch: 10 March)

Date Brightness Start Highest point End Pass type
(mag) Time Alt. Az. Time Alt. Az. Time Alt. Az.
11 Mar 6.6 05:47:32 10° NNE 05:51:31 23° ENE 05:55:29 10° ESE visible
11 Mar 5.0 18:48:30 10° SE 18:52:52 25° E 18:57:07 10° NE visible
11 Mar 5.5 20:29:32 10° SW 20:34:31 37° WNW 20:39:23 10° N visible
12 Mar 7.0 05:21:26 10° NNE 05:24:25 16° ENE 05:27:25 10° ESE visible
12 Mar 4.8 20:02:17 10° SSW 20:07:35 55° WNW 20:12:43 10° N visible
13 Mar 7.5 04:56:39 10° NE 04:57:16 10° ENE 04:57:53 10° ENE visible
13 Mar 4.1 19:35:18 10° S 19:40:42 83° W 19:45:56 10° N visible
14 Mar 4.0 19:08:33 10° S 19:13:52 66° E 19:19:01 10° NNE visible
14 Mar 7.0 20:53:14 10° W 20:56:11 15° WNW 20:59:07 10° NNW visible
15 Mar 5.5 05:41:19 10° N 05:46:03 40° ENE 05:50:48 10° SE visible
15 Mar 6.5 20:25:04 10° WSW 20:29:07 22° WNW 20:33:05 10° NNW visible
16 Mar 6.3 05:14:48 10° NNE 05:19:03 27° ENE 05:23:19 10° SE visible
16 Mar 5.9 19:57:23 10° SW 20:02:05 32° WNW 20:06:41 10° N visible
17 Mar 6.9 04:48:32 10° NNE 04:52:00 18° ENE 04:55:28 10° ESE visible
17 Mar 5.2 19:30:01 10° SSW 19:35:07 47° WNW 19:40:05 10° N visible
18 Mar 7.3 04:22:51 10° NE 04:24:52 12° ENE 04:26:53 10° E visible
18 Mar 4.4 19:02:56 10° SSW 19:08:12 71° W 19:13:21 10° N visible
19 Mar 4.3 05:35:25 10° N 05:40:28 72° E 05:45:35 10° SSE visible
19 Mar 7.3 20:21:38 10° W 20:23:48 12° WNW 20:25:57 10° NW visible
20 Mar 5.1 05:08:41 10° N 05:13:33 47° ENE 05:18:29 10° SSE visible
20 Mar 7.0 19:53:05 10° WSW 19:56:41 19° WNW 20:00:14 10° NNW visible
